Zurück zum Katalog

STARLINK-32082

AktivKommunikationVLEO
NORAD 60346·PAYLOAD·🇺🇸 United States

Gestartet Aug 2, 2024 von Cape Canaveral Space Force Station

Loading…

Nächste Überflüge (nächste 24 Stunden)

TLE

AktuellSource: CelesTrak SupGP

Epoche: Sep 15, 2026, 03:24 UTC

1 60346C 24136T   26258.14215278 -.00018652  00000+0 -55096-3 0  2587
2 60346  53.1583 274.9552 0001311  91.1198 164.5427 15.34406590    12

Verfolge STARLINK-32082 in Echtzeit mit AllMySat

Download on the App Store